• Em Portugal
  • Lista de países
  • Para 7 dias
  • Temperatura da água
  • Mapas de satélite
  • Mapa do tempo
  • Widgets de tempo
  • user-avatar
    Iniciar Sessão

    Previsão horária em Maceió

    Hoje, 21 Setembro, Quinta-feira

    Tempo Temperatura Precipitação Vento Pressão Humidade
    00:00 +22°C° 0,1 mm 6 m/s 763 mmHg 94%
    01:00 +22°C° 0,1 mm 6 m/s 763 mmHg 94%
    02:00 +22°C° 0,2 mm 5 m/s 762 mmHg 95%
    03:00 +22°C° 0,2 mm 5 m/s 762 mmHg 95%
    04:00 +22°C° 0,2 mm 5 m/s 762 mmHg 95%
    05:00 +22°C° 0,1 mm 5 m/s 762 mmHg 94%
    06:00 +22°C° 0,1 mm 4 m/s 762 mmHg 94%
    07:00 +23°C° 0,1 mm 4 m/s 762 mmHg 93%
    08:00 +25°C° 0,2 mm 4 m/s 763 mmHg 87%
    09:00 +27°C° 0,2 mm 5 m/s 763 mmHg 81%
    10:00 +28°C° 0,2 mm 5 m/s 763 mmHg 75%
    11:00 +28°C° 0,4 mm 5 m/s 763 mmHg 76%
    12:00 +28°C° 0,4 mm 5 m/s 763 mmHg 77%
    13:00 +28°C° 0,4 mm 5 m/s 763 mmHg 78%
    14:00 +27°C° 0,3 mm 5 m/s 762 mmHg 80%
    15:00 +27°C° 0,3 mm 5 m/s 762 mmHg 81%
    16:00 +27°C° 0,3 mm 5 m/s 761 mmHg 82%
    17:00 +26°C° 0,2 mm 5 m/s 762 mmHg 86%
    18:00 +25°C° 0,2 mm 5 m/s 762 mmHg 90%
    19:00 +23°C° 0,2 mm 5 m/s 762 mmHg 94%
    20:00 +23°C° 0,1 mm 5 m/s 762 mmHg 94%
    21:00 +23°C° 0,1 mm 5 m/s 763 mmHg 95%
    22:00 +22°C° 0,1 mm 5 m/s 763 mmHg 96%
    23:00 +22°C° 0,2 mm 5 m/s 763 mmHg 95%

    Amanhã, 22 Setembro, Sexta-feira

    Tempo Temperatura Precipitação Vento Pressão Humidade
    00:00 +22°C° 0,2 mm 5 m/s 763 mmHg 95%
    01:00 +22°C° 0,2 mm 5 m/s 762 mmHg 95%
    02:00 +22°C° 0,3 mm 5 m/s 762 mmHg 96%
    03:00 +22°C° 0,3 mm 5 m/s 762 mmHg 96%
    04:00 +22°C° 0,3 mm 5 m/s 761 mmHg 96%
    05:00 +22°C° 0,6 mm 5 m/s 761 mmHg 96%
    06:00 +22°C° 0,6 mm 5 m/s 762 mmHg 96%
    07:00 +22°C° 0,6 mm 5 m/s 762 mmHg 96%
    08:00 +23°C° 0,5 mm 5 m/s 762 mmHg 92%
    09:00 +25°C° 0,5 mm 5 m/s 763 mmHg 89%
    10:00 +26°C° 0,5 mm 6 m/s 763 mmHg 86%
    11:00 +26°C° 0,4 mm 6 m/s 763 mmHg 87%
    12:00 +26°C° 0,4 mm 6 m/s 763 mmHg 88%
    13:00 +26°C° 0,4 mm 6 m/s 762 mmHg 89%
    14:00 +26°C° 0,3 mm 6 m/s 762 mmHg 89%
    15:00 +26°C° 0,3 mm 6 m/s 761 mmHg 88%
    16:00 +26°C° 0,3 mm 6 m/s 761 mmHg 88%
    17:00 +25°C° 0,2 mm 5 m/s 761 mmHg 90%
    18:00 +23°C° 0,2 mm 5 m/s 762 mmHg 92%
    19:00 +23°C° 0,2 mm 5 m/s 762 mmHg 94%
    20:00 +22°C° 0,2 mm 5 m/s 762 mmHg 95%
    21:00 +22°C° 0,2 mm 5 m/s 763 mmHg 95%
    22:00 +22°C° 0,2 mm 5 m/s 763 mmHg 95%
    23:00 +22°C° 0,5 mm 5 m/s 763 mmHg 95%

    Depois de amanhã, 23 Setembro, Sábado

    Tempo Temperatura Precipitação Vento Pressão Humidade
    00:00 +22°C° 0,5 mm 5 m/s 762 mmHg 95%
    01:00 +22°C° 0,5 mm 5 m/s 762 mmHg 95%
    02:00 +22°C° 0,4 mm 4 m/s 762 mmHg 95%
    03:00 +22°C° 0,4 mm 4 m/s 761 mmHg 95%
    04:00 +22°C° 0,4 mm 4 m/s 761 mmHg 95%
    05:00 +22°C° 0,4 mm 4 m/s 761 mmHg 95%
    06:00 +22°C° 0,4 mm 4 m/s 762 mmHg 95%
    07:00 +23°C° 0,4 mm 4 m/s 762 mmHg 95%
    08:00 +25°C° 0,4 mm 4 m/s 762 mmHg 90%
    09:00 +26°C° 0,4 mm 4 m/s 763 mmHg 86%
    10:00 +27°C° 0,4 mm 5 m/s 763 mmHg 81%
    11:00 +27°C° 0,6 mm 5 m/s 763 mmHg 83%
    12:00 +27°C° 0,6 mm 5 m/s 762 mmHg 84%
    13:00 +27°C° 0,6 mm 5 m/s 762 mmHg 86%
    14:00 +26°C° 0,6 mm 5 m/s 761 mmHg 88%
    15:00 +26°C° 0,6 mm 5 m/s 761 mmHg 90%
    16:00 +25°C° 0,6 mm 5 m/s 760 mmHg 92%
    17:00 +25°C° 0,4 mm 4 m/s 761 mmHg 93%
    18:00 +23°C° 0,4 mm 4 m/s 761 mmHg 94%
    19:00 +23°C° 0,4 mm 4 m/s 761 mmHg 94%
    20:00 +22°C° 0,3 mm 4 m/s 762 mmHg 95%
    21:00 +22°C° 0,3 mm 4 m/s 762 mmHg 95%
    22:00 +22°C° 0,3 mm 4 m/s 762 mmHg 95%
    23:00 +22°C° 0,5 mm 4 m/s 762 mmHg 95%

    24 Setembro, Domingo

    Tempo Temperatura Precipitação Vento Pressão Humidade
    00:00 +22°C° 0,5 mm 4 m/s 761 mmHg 95%
    01:00 +22°C° 0,5 mm 4 m/s 761 mmHg 95%
    02:00 +22°C° 0,5 mm 4 m/s 761 mmHg 95%
    03:00 +22°C° 0,5 mm 4 m/s 760 mmHg 95%
    04:00 +22°C° 0,5 mm 4 m/s 760 mmHg 95%
    05:00 +22°C° 0,7 mm 4 m/s 761 mmHg 94%
    06:00 +22°C° 0,7 mm 4 m/s 761 mmHg 94%
    07:00 +23°C° 0,7 mm 4 m/s 761 mmHg 94%
    08:00 +25°C° 0,7 mm 4 m/s 762 mmHg 90%
    09:00 +26°C° 0,7 mm 5 m/s 762 mmHg 87%
    10:00 +27°C° 0,7 mm 5 m/s 762 mmHg 83%
    11:00 +27°C° 0,3 mm 5 m/s 762 mmHg 81%
    12:00 +28°C° 0,3 mm 5 m/s 762 mmHg 79%
    13:00 +28°C° 0,3 mm 5 m/s 761 mmHg 77%
    14:00 +28°C° 0,3 mm 5 m/s 761 mmHg 78%
    15:00 +28°C° 0,3 mm 5 m/s 760 mmHg 80%
    16:00 +27°C° 0,3 mm 5 m/s 760 mmHg 81%
    17:00 +26°C° 0,2 mm 5 m/s 760 mmHg 86%
    18:00 +25°C° 0,2 mm 5 m/s 761 mmHg 90%
    19:00 +23°C° 0,2 mm 5 m/s 761 mmHg 94%
    20:00 +23°C° 0,2 mm 5 m/s 761 mmHg 95%
    21:00 +23°C° 0,2 mm 5 m/s 762 mmHg 96%
    22:00 +23°C° 0,2 mm 5 m/s 762 mmHg 96%
    23:00 +23°C° 0,2 mm 5 m/s 762 mmHg 96%

    25 Setembro, Segunda-feira

    Tempo Temperatura Precipitação Vento Pressão Humidade
    00:00 +22°C° 0,2 mm 5 m/s 761 mmHg 96%
    01:00 +22°C° 0,2 mm 5 m/s 761 mmHg 97%
    02:00 +22°C° 0,4 mm 5 m/s 761 mmHg 97%
    03:00 +22°C° 0,4 mm 5 m/s 761 mmHg 97%
    04:00 +22°C° 0,4 mm 5 m/s 761 mmHg 97%
    05:00 +22°C° 0,7 mm 5 m/s 761 mmHg 97%
    06:00 +23°C° 0,7 mm 5 m/s 761 mmHg 96%
    07:00 +23°C° 0,7 mm 5 m/s 762 mmHg 96%
    08:00 +24°C° 0,7 mm 6 m/s 762 mmHg 94%
    09:00 +24°C° 0,7 mm 6 m/s 763 mmHg 91%
    10:00 +26°C° 0,7 mm 6 m/s 763 mmHg 89%
    11:00 +26°C° 0,5 mm 6 m/s 762 mmHg 89%
    12:00 +26°C° 0,5 mm 6 m/s 762 mmHg 88%
    13:00 +26°C° 0,5 mm 6 m/s 762 mmHg 88%
    14:00 +27°C° 0,2 mm 6 m/s 761 mmHg 87%
    15:00 +27°C° 0,2 mm 5 m/s 761 mmHg 86%
    16:00 +27°C° 0,2 mm 5 m/s 761 mmHg 85%
    17:00 +26°C° 0,1 mm 5 m/s 761 mmHg 87%
    18:00 +25°C° 0,1 mm 5 m/s 761 mmHg 90%
    19:00 +23°C° 0,1 mm 4 m/s 761 mmHg 93%
    20:00 +23°C° 0,1 mm 4 m/s 762 mmHg 93%
    21:00 +23°C° 0,1 mm 4 m/s 762 mmHg 94%
    22:00 +22°C° 0,1 mm 4 m/s 762 mmHg 94%
    23:00 +22°C° 0,1 mm 4 m/s 762 mmHg 94%

    26 Setembro, Terça-feira

    Tempo Temperatura Precipitação Vento Pressão Humidade
    00:00 +22°C° 0,1 mm 4 m/s 762 mmHg 95%
    01:00 +22°C° 0,1 mm 4 m/s 761 mmHg 95%
    02:00 +22°C° 0,1 mm 4 m/s 761 mmHg 95%
    03:00 +22°C° 0,1 mm 4 m/s 761 mmHg 95%
    04:00 +21°C° 0,1 mm 4 m/s 761 mmHg 95%
    05:00 +22°C° 0,2 mm 4 m/s 761 mmHg 95%
    06:00 +23°C° 0,2 mm 4 m/s 761 mmHg 95%
    07:00 +23°C° 0,2 mm 4 m/s 762 mmHg 95%
    08:00 +25°C° 0,3 mm 5 m/s 762 mmHg 91%
    09:00 +26°C° 0,3 mm 5 m/s 762 mmHg 88%
    10:00 +27°C° 0,3 mm 6 m/s 762 mmHg 84%
    11:00 +28°C° 0,2 mm 6 m/s 762 mmHg 81%
    12:00 +29°C° 0,2 mm 6 m/s 761 mmHg 78%
    13:00 +29°C° 0,2 mm 6 m/s 761 mmHg 75%
    14:00 +29°C° 0,2 mm 6 m/s 761 mmHg 76%
    15:00 +29°C° 0,2 mm 5 m/s 760 mmHg 78%
    16:00 +28°C° 0,2 mm 5 m/s 760 mmHg 79%
    17:00 +27°C° 0,1 mm 5 m/s 760 mmHg 84%
    18:00 +26°C° 0,1 mm 5 m/s 760 mmHg 88%
    19:00 +23°C° 0,1 mm 4 m/s 760 mmHg 93%
    20:00 +23°C° 0,1 mm 4 m/s 761 mmHg 94%
    21:00 +23°C° 0,1 mm 4 m/s 761 mmHg 94%
    22:00 +23°C° 0,1 mm 4 m/s 761 mmHg 95%
    23:00 +22°C° 0,1 mm 4 m/s 761 mmHg 96%
    Mostrar mais